FW7766 Weather Reports


Display with metric or nautical units.
time (UTC)temp
F
wind
direction
speed
MPH
gust
MPH
rain 1hr
in
rain 24hr
in
rain mn
in
humidity
%
barometer
mb
20260505010602 66 0.0 0.0 0.00 0.00 0.00 44 1014.4
20260505005559 66 0.0 0.0 0.00 0.00 0.00 44 1014.3
20260505004555 65 0.0 0.0 0.00 0.00 0.00 44 1014.2
20260505003552 67 0.0 0.0 0.00 0.00 0.00 44 1014.1
20260505002548 69 0.0 0.0 0.00 0.00 0.00 44 1013.9
20260505001605 70 0.0 0.0 0.00 0.00 0.00 44 1014.1
20260505000542 70 0.0 0.0 0.00 0.00 0.00 44 1013.9
20260504235537 71 0.0 0.0 0.00 0.00 0.00 44 1013.8
20260504234534 71 0.0 0.0 0.00 0.00 0.00 44 1013.8
20260504233530 72 0.0 0.0 0.00 0.00 0.00 44 1013.7
20260504232527 73 0.0 0.0 0.00 0.00 0.00 44 1013.6
20260504231524 73 0.0 0.0 0.00 0.00 0.00 44 1013.6
20260504230540 73 270 0.0 1.0 0.00 0.00 0.00 44 1013.6
20260504225537 74 270 0.0 1.0 0.00 0.00 0.00 44 1013.7
20260504224633 74 270 0.0 1.0 0.00 0.00 0.00 44 1013.6
20260504223610 74 270 1.0 2.0 0.00 0.00 0.00 44 1013.7
20260504222607 74 270 1.0 3.0 0.00 0.00 0.00 44 1013.7
20260504221603 75 246 1.0 3.0 0.00 0.00 0.00 44 1013.6
20260504220620 75 270 1.0 3.0 0.00 0.00 0.00 44 1013.7
20260504215617 75 270 0.0 2.0 0.00 0.00 0.00 44 1013.8
20260504214554 76 270 1.0 3.0 0.00 0.00 0.00 44 1013.8
20260504213550 76 270 0.0 1.0 0.00 0.00 0.00 44 1013.7
20260504212546 76 211 2.0 6.0 0.00 0.00 0.00 44 1013.6
20260504211543 76 186 1.0 3.0 0.00 0.00 0.00 44 1013.6
20260504210540 76 270 2.0 4.0 0.00 0.00 0.00 44 1013.7
20260504205536 76 270 1.0 2.0 0.00 0.00 0.00 44 1013.8
20260504204552 76 249 1.0 4.0 0.00 0.00 0.00 44 1013.8
20260504203529 76 270 1.0 2.0 0.00 0.00 0.00 44 1013.9
20260504202526 76 270 1.0 4.0 0.00 0.00 0.00 44 1014.0
20260504201523 76 270 0.0 3.0 0.00 0.00 0.00 44 1014.0
20260504200519 75 180 3.0 4.0 0.00 0.00 0.00 44 1014.0
20260504195515 76 249 2.0 3.0 0.00 0.00 0.00 44 1014.3
20260504194612 76 270 0.0 2.0 0.00 0.00 0.00 44 1014.4
20260504193609 76 198 1.0 3.0 0.00 0.00 0.00 44 1014.7
20260504192645 76 248 0.0 2.0 0.00 0.00 0.00 44 1014.7
20260504191602 75 270 1.0 3.0 0.00 0.00 0.00 44 1014.8
20260504190558 75 270 2.0 4.0 0.00 0.00 0.00 44 1014.9
20260504185555 75 248 2.0 3.0 0.00 0.00 0.00 44 1015.0
20260504184551 75 233 1.0 2.0 0.00 0.00 0.00 44 1015.0
20260504183547 75 270 1.0 1.0 0.00 0.00 0.00 44 1015.3
20260504182546 74 270 1.0 2.0 0.00 0.00 0.00 44 1015.3
20260504181601 74 270 3.0 5.0 0.00 0.00 0.00 44 1015.2
20260504180538 75 270 3.0 4.0 0.00 0.00 0.00 44 1015.3
20260504175534 76 270 1.0 1.0 0.00 0.00 0.00 44 1015.5
20260504174531 74 270 2.0 4.0 0.00 0.00 0.00 44 1015.6
20260504173528 75 270 2.0 3.0 0.00 0.00 0.00 44 1015.7
20260504172524 74 270 1.0 3.0 0.00 0.00 0.00 44 1015.9
20260504171521 74 270 2.0 3.0 0.00 0.00 0.00 44 1015.7
20260504170518 74 270 2.0 3.0 0.00 0.00 0.00 44 1015.9
20260504150537 64 270 2.0 3.0 0.00 0.00 0.00 43 1017.7
20260504140536 56 0.0 0.0 0.00 0.00 0.00 40 1017.5
20260504130557 47 0.0 0.0 0.00 0.00 0.00 58 1017.7
20260504110516 39 270 1.0 2.0 0.00 0.00 0.00 73 1017.5
20260504100556 40 0.0 0.0 0.00 0.00 0.00 74 1017.2
20260504081518 42 23 1.0 1.0 0.00 0.00 0.00 72 1017.1
20260504080515 42 0.0 0.0 0.00 0.00 0.00 73 1017.1
20260504050614 45 0.0 0.0 0.00 0.00 0.00 67 1017.4
20260504045610 46 0.0 0.0 0.00 0.00 0.00 60 1017.4
20260504044607 45 0.0 0.0 0.00 0.00 0.00 67 1017.4
20260504043603 45 0 0.0 2.0 0.00 0.00 0.00 67 1017.2
20260504042600 45 0 1.0 1.0 0.00 0.00 0.00 63 1017.3
20260504041556 46 0.0 0.0 0.00 0.00 0.00 57 1017.0
20260504040553 47 0.0 0.0 0.00 0.00 0.00 57 1017.0
20260504035609 47 0.0 0.0 0.00 0.00 0.00 56 1017.1
20260504034544 47 0.0 0.0 0.00 0.00 0.00 57 1017.2
20260504033541 47 45 1.0 1.0 0.00 0.00 0.00 57 1017.2
20260504032538 47 0 0.0 1.0 0.00 0.00 0.00 57 1017.2
20260504031534 47 90 1.0 1.0 0.00 0.00 0.00 55 1017.1
20260504030531 49 0.0 0.0 0.00 0.00 0.00 51 1017.1
20260504025528 49 0.0 0.0 0.00 0.00 0.00 48 1017.1
20260504024524 49 0.0 0.0 0.00 0.00 0.00 50 1017.1
20260504023540 50 90 0.0 1.0 0.00 0.00 0.00 48 1017.1
20260504022517 50 0.0 0.0 0.00 0.00 0.00 45 1017.0
20260504021654 51 0.0 0.0 0.00 0.00 0.00 45 1016.9
20260504020610 51 0.0 0.0 0.00 0.00 0.00 45 1016.8
20260504015627 52 0.0 0.0 0.00 0.00 0.00 45 1016.6
20260504014624 53 0.0 0.0 0.00 0.00 0.00 45 1016.4
20260504013600 53 0.0 0.0 0.00 0.00 0.00 45 1016.3
20260504012557 53 0.0 0.0 0.00 0.00 0.00 45 1016.2
20260504011553 54 0.0 0.0 0.00 0.00 0.00 45 1016.1